Location: Zengebe
(1.4833°N, 32.5167°E)
Time: 23:00:24
(UTC+00:00)

OAO 2 Rocket - Pass Details

Date: 07 June 2020
Orbit: 676 x 746 km, 35.0° (Epoch: 10 July)

Event Time Altitude Azimuth Distance (km) Brightness Sun altitude
Exits shadow 03:02:15 13° 252° (WSW) 1,920 4.9 -10.1°
Maximum altitude 03:06:27 47° 323° (NW) 896 3.8 -9.2°
Drops below altitude 10° 03:11:09 10° 37° (NE) 2,094 6.8 -8.1°
Sets 03:13:35 0° 43° (NE) 3,005 8.0 -7.5°
